Temp_Advection
nan nan nan nan nan nan nan nan nan nan nan nan nan nan nan nan nan nan nan nan nan nan nan nan nan nan nan nan nan nan nan nan nan nan nan nan nan nan nan nan nan nan nan nan nan nan nan
nan -0 -1 -0 -0 -1 -1 -1 -2 -2 -1 -0 -0 -0 -0 0 0 0 0 0 0 0 0 0 0 0 0 -0 -1 0 0 0 0 0 -0 -0 -0 0 0 -0 0 -0 -0 -0 -0 -0 nan
nan -0 -0 -0 -0 -0 -1 -1 -1 -2 -1 -1 -0 -0 0 0 -0 0 0 0 0 0 0 0 0 0 -0 -1 -0 0 0 0 0 -0 -0 -0 0 0 0 -0 -0 0 -0 -0 -0 -0 nan
nan -0 -0 -0 -0 -0 -0 -0 -1 -1 -2 -1 -1 -0 -0 -0 -0 0 1 0 0 0 0 0 0 0 -0 -0 0 -0 0 0 0 0 0 0 0 0 -0 -0 -0 -0 0 -0 -0 -0 nan
nan -0 -0 -0 -0 -0 0 0 -0 -1 -2 -2 -1 -1 -0 -0 -0 -0 0 0 0 0 0 0 0 0 -0 -0 -0 -0 0 0 0 0 0 0 -0 0 0 0 -0 0 0 -0 -0 -0 nan
nan -0 -0 -0 -0 -0 -0 -0 -0 -0 -1 -1 -2 -1 -0 -0 -0 0 1 0 0 0 0 0 0 -0 -1 -0 -0 0 0 0 0 0 0 0 0 0 0 0 -0 -0 -0 -0 -0 0 nan
nan -0 -0 -0 -0 -0 -0 -0 -0 -0 -1 -1 -1 -2 -1 -0 -0 0 0 -0 -0 -0 0 -0 -0 -0 0 0 0 0 0 0 0 0 0 0 0 -0 -0 -0 -0 0 0 -0 -0 -0 nan
nan -0 -0 -0 -0 -0 -0 -0 0 -0 -1 -1 -1 -2 -1 -0 -0 1 -0 -0 -0 -0 0 -1 -0 0 0 0 0 0 0 0 0 0 0 0 -0 -0 -0 0 0 0 0 -0 -0 -0 nan
nan -0 -0 0 -0 -0 -0 -0 0 0 -0 -0 -0 -1 -1 -0 -0 0 1 1 0 -0 -0 -0 1 -0 -0 0 -0 -0 -0 -0 -0 -0 0 0 -0 0 0 0 0 0 0 -0 -0 -1 nan
nan -0 -0 -0 -0 -0 -0 -0 -0 -0 -0 -0 -1 -1 -1 -1 0 1 0 0 0 -0 -0 -0 0 -0 0 -0 -0 -0 -0 -0 -0 -0 0 -0 -0 0 0 -0 0 -0 -0 -0 0 0 nan
nan -0 0 -0 -0 -0 -0 -0 -1 -1 -1 -0 -1 -1 -0 -0 -1 0 -1 0 -0 0 0 0 -0 0 -0 0 -0 0 0 0 -0 -0 -0 -0 0 0 -0 -0 -0 -0 0 0 0 0 nan
nan -0 -0 0 -0 -0 0 0 -0 -1 -1 -1 -1 -1 0 -1 -0 -0 1 -0 -0 -1 -1 0 -0 -0 -0 -0 0 -0 0 0 -0 -0 0 0 -0 -0 -0 -0 -0 -0 0 0 -0 0 nan
nan -0 -1 0 0 -0 -0 0 0 -0 -1 -1 -1 -1 0 -0 0 0 1 -0 -0 -0 0 -0 -0 -0 -0 -0 -0 -0 0 0 0 0 0 0 0 0 0 0 0 0 0 0 -0 0 nan
nan 0 -0 -0 0 -0 -0 -0 0 0 -1 -1 -1 -0 0 -0 -1 0 -0 -0 0 -0 0 0 0 0 0 0 0 0 -0 -0 -0 0 0 0 -0 0 0 -0 -0 0 0 -0 -0 -0 nan
nan -0 0 -0 -0 -0 -0 -0 -0 0 -0 -1 -0 0 -0 -0 -0 2 -0 -0 -0 -0 -0 0 0 0 -0 0 0 0 -0 -0 0 -0 -0 -0 0 -0 -0 -0 -0 -0 -0 -0 -0 0 nan
nan -0 -0 0 0 -0 -0 -0 -0 -0 -0 0 0 0 0 -0 1 2 0 0 -0 -0 -0 -0 -0 -0 -0 -0 0 0 0 -0 0 -0 0 0 0 0 -0 0 0 0 -0 0 0 0 nan
nan -0 -0 -0 -0 -0 -0 -0 -0 -0 -0 -0 0 -0 -0 -0 1 0 0 0 -0 0 -0 -0 -0 -0 -0 0 0 0 0 0 0 0 0 -0 -0 0 0 -0 -0 -0 0 -0 -0 0 nan
nan -0 -0 -0 -0 -0 -0 -0 -0 -0 -0 -0 -0 0 -0 -0 -0 -0 -0 0 -0 0 0 0 0 -0 -0 0 0 0 -0 -0 -0 -0 0 -0 0 -0 -0 -0 -0 -0 -0 -0 0 0 nan
nan -0 -0 -0 0 -0 -0 -0 -0 -0 0 -0 -0 0 -0 0 -0 -0 -0 0 -0 -0 -0 0 0 0 0 -0 0 -0 -0 -0 0 -0 -0 -0 0 0 0 -0 0 0 -0 -0 0 0 nan
nan -0 0 -0 -0 0 -0 -0 -0 -0 -0 1 -0 0 0 0 -0 -0 -0 -0 0 -0 -0 -0 -0 -0 0 0 0 0 -0 -0 -0 -0 -0 0 0 -0 -0 0 0 -0 -0 0 0 -0 nan
nan 0 0 -0 -0 0 -0 -0 -0 -0 -1 -0 -0 -0 -0 0 -0 0 0 -0 -0 0 0 0 0 -0 -0 0 -0 -0 -0 -0 -0 -0 0 0 0 0 -0 0 0 -0 -0 0 0 -1 nan
nan -0 0 -0 -0 -0 -0 -0 -0 -0 -0 -0 -0 -0 -0 -0 -0 0 0 0 -0 -0 -0 0 -0 0 0 -0 -0 -0 -0 -0 -0 -0 0 0 0 -0 -0 -0 -0 -0 -0 -0 -1 -1 nan
nan -0 -0 -0 -0 -0 -0 -0 -0 -0 -0 -0 -0 -1 -0 -0 -0 -0 -0 -0 -0 0 0 0 -0 0 -0 -0 -0 -0 0 0 -0 0 0 0 -0 -0 -0 0 -0 -0 -1 -1 -0 -1 nan
nan -0 0 -0 -0 -0 -0 -0 -0 -0 -0 0 -0 -1 0 0 -0 -0 -0 -0 -0 0 0 -0 0 -0 -0 0 0 0 1 0 -0 -0 -0 -0 -0 -0 -0 -0 -0 0 0 0 -0 -0 nan
nan -0 -0 -0 -0 0 -0 0 0 -0 -0 0 0 -0 -0 0 0 -0 -0 0 -0 0 0 -0 -0 -0 0 0 0 -0 0 0 0 -0 0 0 -0 -0 -0 -0 -0 0 0 -0 -0 -1 nan
nan -0 -0 -0 -0 0 -0 -0 -0 -0 -0 -0 0 -0 -0 0 -0 -0 -0 -0 -0 0 0 -0 -0 0 0 0 -0 0 0 -0 0 0 0 -0 -0 -0 -0 -0 -0 0 0 0 0 -0 nan
nan -0 -0 -0 0 0 0 -0 -0 -0 -0 -0 -0 -0 -0 0 0 0 0 -0 0 -0 0 -0 0 0 0 -0 -0 0 -0 0 -0 -0 -0 -0 -0 -0 -0 -0 -0 -0 -0 0 0 0 nan
nan 0 0 -0 0 0 0 0 -0 -1 -0 -0 -0 -0 0 0 0 0 -0 -0 -0 -0 -0 -0 0 0 -0 -0 0 0 0 0 -0 0 0 -0 -0 -0 -0 -0 -0 -0 -0 -0 0 -0 nan
nan nan nan nan nan nan nan nan nan nan nan nan nan nan nan nan nan nan nan nan nan nan nan nan nan nan nan nan nan nan nan nan nan nan nan nan nan nan nan nan nan nan nan nan nan nan nan
Wind_Speed
25 25 25 25 25 26 25 27 25 21 18 21 20 25 22 19 17 19 12 11 9 7 7 7 8 11 11 10 10 5 7 5 8 21 20 10 7 4 4 3 1 4 3 6 8 12 16
24 26 28 26 25 25 26 23 25 24 21 19 21 21 25 21 17 18 13 11 10 8 6 7 7 10 13 6 12 14 12 9 9 14 16 14 5 5 4 5 3 3 7 8 7 10 16
26 27 26 25 28 28 27 25 24 23 21 20 19 21 25 21 18 16 13 11 9 6 6 8 6 9 14 21 9 13 16 13 14 10 10 6 9 5 1 3 3 5 4 6 6 8 6
27 28 29 29 26 28 29 27 28 23 23 25 16 21 22 22 22 14 14 11 8 8 8 7 9 8 9 7 14 14 18 18 13 10 6 2 3 2 5 6 5 3 1 2 4 8 8
27 28 30 30 29 29 30 32 29 28 26 24 24 15 22 22 24 20 15 12 13 10 11 10 9 9 9 8 12 16 15 9 14 15 10 7 4 4 3 3 3 5 4 4 6 2 4
27 29 29 31 31 31 31 31 32 29 28 26 25 22 21 23 24 23 14 13 12 11 11 10 12 6 10 3 4 9 17 13 8 10 7 6 4 2 3 4 6 5 5 5 7 2 4
25 28 29 31 34 32 34 32 31 29 29 27 28 26 21 24 23 28 22 18 7 4 17 12 9 5 1 6 5 5 5 16 9 6 5 3 3 9 13 10 8 2 4 8 6 8 7
26 27 29 29 31 34 36 32 30 29 29 26 24 26 22 24 24 33 25 24 16 4 4 29 21 16 3 7 4 6 7 10 7 5 4 2 12 8 5 5 6 8 11 13 9 9 9
26 31 33 32 33 33 35 33 32 34 32 25 24 24 23 24 26 37 32 24 16 9 1 6 25 22 16 12 4 13 15 8 3 6 9 9 3 4 10 5 6 5 10 5 11 10 14
32 32 33 32 33 33 33 32 31 34 29 24 23 23 22 25 24 38 34 28 16 7 4 4 5 6 13 14 6 22 21 10 3 10 7 9 8 7 4 5 7 14 7 12 11 4 4
31 32 34 32 32 34 32 30 32 30 28 24 25 23 22 25 17 41 34 32 20 8 2 3 4 5 10 19 4 6 22 11 7 7 6 5 3 5 12 12 7 5 5 8 7 5 5
33 32 33 32 33 33 33 31 33 31 26 26 26 24 18 31 19 38 28 30 21 5 6 5 5 6 9 10 2 6 9 9 3 5 7 6 4 5 5 4 12 1 4 5 3 5 9
34 34 33 33 31 33 31 32 35 33 38 36 23 20 17 27 8 34 40 35 5 4 1 6 6 7 9 7 5 5 11 10 6 4 7 4 15 4 4 4 4 7 4 2 4 6 7
35 34 33 32 30 31 30 31 32 40 45 30 19 15 16 28 23 41 48 5 4 6 5 3 6 7 6 5 5 6 11 8 13 4 2 5 5 13 11 14 7 11 10 4 6 3 4
35 33 32 32 30 31 32 31 30 39 48 30 14 15 7 34 42 45 34 5 8 6 7 8 9 5 7 5 2 6 8 8 9 14 7 3 5 1 3 7 10 5 8 13 5 4 4
34 35 31 32 29 29 30 31 31 37 46 13 13 14 10 15 44 50 9 6 5 5 7 4 6 5 6 7 7 7 7 4 12 14 12 3 7 5 3 6 10 6 1 3 5 5 5
33 33 31 32 29 30 29 31 32 37 39 16 7 10 9 12 38 18 4 4 4 7 10 6 5 4 3 5 6 4 4 4 6 4 15 5 6 1 3 10 11 8 5 4 2 3 4
33 32 32 31 29 29 30 29 32 33 34 14 2 1 5 26 8 3 4 6 5 5 3 3 3 4 6 7 6 6 7 6 8 10 9 9 4 6 14 4 12 13 11 12 5 5 4
34 33 31 30 28 28 29 31 31 31 28 29 5 5 25 40 3 4 4 3 3 3 4 5 5 5 4 6 3 7 4 7 14 10 10 9 5 3 3 2 4 9 12 15 13 3 8
34 31 30 29 29 27 28 29 31 32 34 16 6 2 14 21 5 8 9 4 3 1 4 4 4 5 4 6 5 3 4 4 18 11 11 15 5 7 8 3 2 6 12 16 16 8 14
33 31 29 29 28 28 28 27 32 32 23 9 3 3 5 5 4 10 5 6 5 2 1 9 4 8 5 4 6 8 7 6 6 13 8 7 6 11 19 19 9 6 10 17 21 19 11
30 30 28 29 27 28 27 28 29 28 21 6 4 4 6 10 14 10 6 6 11 7 3 4 7 7 8 5 7 2 3 6 5 8 9 4 5 5 10 15 18 14 17 16 21 23 24
29 28 28 28 27 28 26 24 26 28 24 8 9 8 12 15 8 9 8 5 7 7 7 10 10 8 9 13 18 21 17 13 6 5 8 2 3 3 6 8 12 11 24 21 14 19 18
29 26 28 28 26 27 25 23 23 23 22 16 8 10 1 5 9 9 11 9 5 5 4 0 9 6 2 5 11 8 16 16 13 12 12 6 3 2 5 4 3 2 4 22 24 12 21
28 27 25 25 26 27 24 24 22 22 21 18 7 5 1 3 9 11 7 5 10 7 2 6 17 17 12 6 3 2 1 3 6 10 14 10 3 3 3 2 5 3 1 4 12 13 17
28 27 24 24 23 25 23 22 21 24 23 19 1 5 9 3 9 10 9 6 3 3 1 4 6 5 8 3 3 3 3 1 4 3 2 5 3 1 4 3 4 3 1 10 7 4 17
27 26 24 22 23 23 22 22 19 22 22 21 5 4 5 3 12 18 6 7 5 3 1 2 2 2 9 3 3 3 2 3 2 2 3 2 2 4 4 3 5 2 3 10 2 5 5
25 23 23 21 21 22 23 23 20 21 18 19 7 7 4 4 9 7 14 11 8 9 3 4 0 3 2 3 3 3 3 4 2 4 4 6 4 3 1 2 3 3 5 3 3 5 4
25 23 22 22 21 21 21 21 20 19 17 19 12 6 5 2 2 10 11 11 12 8 9 7 2 1 4 2 2 2 3 2 3 3 0 2 5 3 6 4 3 3 5 8 9 7 3
Wind_Direction
355 350 348 345 341 342 331 305 296 334 289 271 269 264 267 271 288 288 261 255 247 237 259 249 239 223 208 216 237 197 203 201 199 212 218 205 204 180 204 225 292 204 221 268 277 281 278
350 350 348 344 341 337 337 334 314 294 324 282 266 260 263 259 272 283 262 246 241 225 230 255 228 226 216 229 248 225 183 147 147 183 203 211 215 226 260 241 192 309 303 282 285 284 271
351 348 344 342 340 335 334 328 325 300 294 326 274 262 253 255 251 275 257 240 235 231 240 243 227 234 234 241 235 222 191 180 159 164 168 194 217 223 141 262 315 284 305 297 235 239 247
347 347 346 342 335 335 333 327 325 313 292 288 326 260 252 255 247 253 261 229 211 214 233 243 238 246 249 256 242 227 213 216 202 202 200 179 183 245 218 278 333 315 205 299 313 209 228
347 344 343 341 338 334 330 327 323 320 310 293 297 282 250 247 243 242 242 215 216 217 233 230 244 237 261 248 233 209 213 215 215 228 218 222 243 227 180 129 326 202 240 220 329 294 254
341 339 340 338 337 332 327 323 319 318 315 300 298 285 250 238 240 228 212 201 213 221 215 224 234 264 246 232 188 193 216 217 171 178 180 222 221 195 150 161 222 211 239 232 245 302 354
339 342 339 337 333 331 327 325 317 316 314 307 292 293 265 234 238 217 189 179 167 205 207 197 212 221 46 172 171 190 206 186 174 158 173 176 201 214 220 220 246 331 278 273 286 285 303
340 338 333 327 327 327 325 322 318 314 311 305 304 300 272 235 237 208 198 188 192 151 213 229 239 234 186 164 156 188 178 161 164 175 130 204 246 237 231 208 230 235 258 265 279 266 271
331 331 329 328 327 326 322 317 313 315 318 303 292 303 261 237 249 201 195 195 191 201 304 250 229 233 222 226 234 193 183 170 144 158 196 214 180 229 199 199 212 215 234 244 255 289 286
333 332 326 327 325 323 321 315 309 314 313 301 295 291 278 234 204 192 184 182 173 167 52 249 202 240 201 206 270 218 195 165 158 201 200 246 235 228 195 230 190 253 196 235 249 246 244
330 332 326 326 323 322 323 320 315 317 310 316 298 285 278 239 267 174 182 184 186 157 11 150 161 152 168 162 146 171 198 183 161 181 165 228 180 222 232 223 185 242 186 208 229 234 270
327 326 324 324 324 324 325 323 327 322 312 310 298 278 268 241 212 182 180 166 143 62 250 170 136 172 157 202 167 122 170 197 183 202 233 217 195 177 215 246 210 77 222 255 255 253 251
330 329 328 325 323 326 326 325 323 321 320 324 299 269 240 237 199 174 157 144 100 165 46 176 180 173 181 166 205 151 186 193 194 192 218 219 231 171 204 195 185 186 196 248 219 210 243
328 328 329 329 327 327 329 328 327 316 327 315 291 238 233 236 268 171 153 119 139 182 178 115 152 153 185 155 206 182 178 208 216 199 331 213 288 183 189 207 183 192 187 182 217 220 273
327 329 331 331 328 332 331 329 329 324 323 321 231 201 224 225 178 165 158 190 184 182 152 135 135 168 198 205 206 176 223 228 211 181 206 222 265 309 206 180 189 167 204 226 296 267 292
332 330 333 333 328 332 333 329 328 331 336 357 169 173 226 246 163 160 170 194 163 140 119 150 160 176 178 186 183 182 198 218 219 182 196 231 270 208 203 185 250 192 247 180 188 200 233
328 332 336 333 332 334 336 332 331 336 339 331 156 164 169 220 165 164 169 180 164 155 131 150 170 152 192 167 189 206 238 270 205 198 178 155 215 160 169 203 185 191 222 234 224 200 210
333 337 337 334 335 337 336 334 335 340 339 24 280 72 161 171 162 183 161 161 138 135 149 132 127 126 174 178 189 217 224 230 180 141 180 203 227 225 223 231 213 205 209 203 204 234 239
337 337 338 337 338 338 340 334 336 340 335 324 251 151 162 157 166 146 150 107 102 118 180 152 159 161 180 174 212 199 212 249 182 170 178 163 221 266 273 186 176 217 224 216 226 286 219
338 337 339 339 338 340 342 335 338 344 330 353 155 146 140 200 279 155 140 141 118 179 135 157 160 120 159 210 223 270 238 267 189 187 185 172 217 215 236 237 173 204 208 216 206 231 237
341 337 341 339 345 346 345 342 345 348 335 177 169 94 119 165 190 164 132 143 180 135 153 180 187 211 180 221 216 227 233 268 164 197 187 199 238 225 239 243 221 209 214 212 214 222 221
341 338 341 342 342 346 347 347 351 356 3 317 18 105 159 154 145 155 190 167 179 192 193 190 224 196 228 228 215 186 235 192 196 195 193 213 268 244 256 233 225 227 224 218 220 227 237
344 342 341 342 345 347 350 349 355 359 9 4 352 334 165 169 152 161 188 182 203 147 210 253 211 233 252 243 236 252 249 255 257 245 212 256 261 278 280 309 233 239 237 224 224 219 222
342 344 342 341 344 346 350 347 351 1 5 354 325 320 145 169 189 180 150 205 190 191 212 297 224 218 206 202 281 260 245 257 258 250 188 195 199 240 282 267 263 288 286 212 211 222 218
341 344 344 338 342 345 351 347 351 355 357 352 329 288 270 135 184 178 171 175 222 235 234 262 269 248 260 283 247 224 188 273 251 227 209 208 142 282 270 279 279 353 345 121 174 241 213
340 340 341 339 342 343 348 345 348 354 355 350 1 234 275 140 209 160 179 159 146 164 230 225 264 256 241 225 222 224 216 192 304 325 1 193 246 297 315 320 352 308 327 88 78 262 201
338 337 336 338 339 342 345 346 349 352 354 352 349 237 310 86 147 184 182 205 187 143 243 276 221 237 209 224 225 187 245 156 260 245 191 190 184 216 267 284 294 315 159 122 64 277 356
338 333 332 338 337 340 344 345 345 350 350 346 343 8 31 39 160 165 165 170 158 184 180 156 297 205 201 230 194 161 206 231 255 225 192 182 174 216 269 263 332 86 97 190 242 298 317
340 339 333 336 338 337 340 339 337 340 348 344 335 16 138 168 185 207 215 213 209 246 206 187 211 142 242 245 209 167 204 164 208 274 133 241 192 202 182 221 247 221 254 290 301 293 234
Height
1499 1495 1491 1488 1484 1480 1476 1473 1472 1469 1467 1468 1468 1468 1469 1469 1470 1469 1469 1469 1470 1471 1473 1474 1474 1475 1477 1477 1475 1474 1474 1475 1475 1479 1482 1485 1488 1488 1489 1488 1486 1486 1485 1485 1485 1486 1485
1497 1494 1490 1486 1482 1478 1474 1470 1467 1466 1464 1463 1463 1464 1464 1465 1467 1467 1466 1466 1468 1469 1471 1472 1474 1474 1475 1475 1473 1474 1474 1475 1476 1479 1481 1483 1484 1485 1487 1487 1486 1483 1483 1484 1483 1482 1482
1496 1492 1488 1484 1480 1475 1471 1467 1463 1462 1460 1457 1457 1458 1459 1461 1462 1464 1463 1464 1466 1468 1470 1472 1473 1473 1473 1468 1469 1471 1473 1475 1476 1479 1480 1481 1483 1485 1485 1485 1484 1482 1483 1481 1480 1479 1478
1495 1490 1486 1481 1477 1473 1469 1464 1460 1457 1455 1453 1450 1452 1454 1456 1458 1459 1461 1462 1464 1466 1468 1470 1472 1472 1469 1465 1465 1468 1470 1473 1476 1477 1479 1480 1482 1483 1484 1483 1482 1482 1482 1484 1475 1473 1474
1493 1489 1484 1479 1475 1471 1467 1462 1457 1453 1450 1448 1446 1446 1448 1450 1453 1455 1457 1460 1462 1464 1467 1469 1470 1471 1465 1462 1462 1465 1468 1471 1474 1476 1478 1480 1481 1482 1483 1484 1486 1483 1486 1482 1479 1471 1472
1490 1486 1482 1477 1472 1468 1463 1459 1454 1450 1446 1443 1441 1439 1441 1444 1447 1449 1453 1457 1460 1462 1465 1467 1468 1472 1461 1460 1460 1462 1465 1469 1472 1475 1478 1480 1481 1482 1482 1484 1490 1482 1479 1473 1473 1471 1471
1487 1483 1479 1474 1469 1464 1459 1454 1449 1445 1441 1439 1436 1434 1434 1438 1442 1443 1447 1454 1462 1463 1461 1456 1458 1457 1457 1459 1460 1461 1463 1467 1471 1475 1478 1478 1481 1475 1476 1477 1476 1477 1480 1480 1476 1471 1471
1485 1481 1476 1470 1465 1459 1454 1449 1444 1440 1436 1433 1431 1428 1429 1431 1435 1433 1440 1443 1448 1453 1455 1454 1454 1455 1457 1457 1459 1460 1463 1468 1471 1475 1477 1479 1474 1473 1474 1476 1476 1477 1476 1475 1475 1470 1468
1482 1477 1472 1466 1461 1456 1450 1444 1439 1434 1430 1426 1424 1423 1423 1424 1427 1424 1432 1441 1444 1449 1453 1449 1447 1449 1453 1458 1457 1458 1462 1465 1468 1473 1474 1475 1467 1465 1471 1475 1477 1478 1477 1479 1478 1472 1466
1478 1473 1467 1461 1456 1451 1444 1438 1433 1428 1424 1420 1417 1415 1416 1420 1421 1414 1425 1435 1443 1448 1464 1447 1445 1443 1446 1453 1454 1453 1457 1462 1467 1469 1474 1472 1466 1468 1472 1474 1476 1475 1472 1472 1473 1477 1481
1474 1469 1462 1456 1451 1445 1438 1432 1426 1421 1417 1412 1412 1410 1410 1414 1411 1408 1420 1430 1440 1448 1480 1443 1443 1443 1443 1449 1448 1451 1454 1459 1464 1466 1469 1465 1465 1467 1469 1469 1471 1468 1468 1470 1470 1471 1473
1469 1463 1457 1451 1446 1440 1433 1426 1421 1415 1411 1407 1404 1403 1404 1406 1404 1406 1414 1431 1440 1462 1473 1440 1440 1441 1444 1446 1446 1450 1454 1458 1459 1461 1461 1462 1462 1464 1465 1464 1466 1466 1470 1470 1470 1469 1465
1465 1459 1453 1446 1441 1435 1428 1422 1417 1408 1404 1399 1396 1396 1397 1401 1402 1402 1412 1426 1444 1455 1435 1436 1435 1437 1438 1442 1445 1447 1452 1455 1456 1461 1459 1457 1455 1457 1460 1463 1463 1465 1468 1474 1465 1463 1453
1462 1455 1448 1442 1436 1430 1423 1418 1411 1403 1396 1390 1386 1388 1389 1393 1398 1397 1409 1421 1437 1424 1431 1428 1430 1436 1438 1440 1442 1445 1448 1451 1452 1455 1457 1461 1459 1450 1450 1451 1454 1456 1459 1465 1461 1449 1458
1458 1451 1444 1438 1432 1426 1419 1412 1406 1399 1386 1376 1376 1383 1386 1394 1393 1394 1407 1414 1414 1415 1419 1427 1433 1436 1440 1440 1442 1444 1445 1442 1442 1450 1455 1453 1455 1445 1443 1445 1450 1453 1455 1446 1448 1443 1450
1455 1447 1441 1434 1428 1422 1416 1410 1403 1394 1381 1373 1374 1379 1382 1388 1391 1398 1405 1407 1408 1408 1414 1421 1425 1428 1433 1437 1443 1442 1440 1433 1435 1437 1444 1448 1447 1443 1443 1444 1444 1447 1448 1448 1451 1451 1453
1452 1444 1438 1431 1425 1419 1413 1406 1399 1391 1381 1375 1378 1383 1384 1392 1396 1400 1402 1405 1406 1407 1410 1418 1421 1426 1424 1428 1434 1436 1435 1431 1430 1434 1440 1446 1447 1444 1444 1438 1436 1445 1445 1446 1439 1441 1449
1448 1441 1435 1428 1422 1416 1411 1405 1397 1390 1383 1378 1374 1372 1377 1384 1395 1400 1404 1401 1402 1407 1410 1413 1416 1418 1424 1431 1436 1441 1436 1431 1427 1430 1439 1440 1439 1437 1433 1428 1427 1427 1428 1434 1435 1444 1435
1446 1439 1432 1426 1420 1415 1409 1401 1395 1388 1385 1381 1377 1376 1381 1386 1390 1394 1399 1400 1401 1407 1410 1413 1416 1417 1420 1426 1432 1432 1429 1421 1424 1427 1430 1434 1434 1429 1428 1427 1424 1423 1422 1422 1424 1427 1429
1443 1436 1430 1424 1419 1413 1407 1399 1393 1384 1377 1371 1374 1372 1382 1389 1389 1391 1396 1400 1404 1405 1408 1410 1414 1417 1421 1422 1426 1425 1427 1419 1419 1422 1425 1428 1426 1422 1415 1412 1415 1414 1415 1417 1421 1421 1413
1441 1434 1428 1423 1418 1412 1406 1400 1388 1382 1376 1374 1373 1376 1381 1388 1390 1393 1395 1401 1405 1406 1408 1410 1412 1414 1417 1418 1419 1423 1421 1418 1420 1419 1424 1425 1417 1415 1407 1405 1409 1405 1406 1408 1411 1411 1411
1439 1432 1426 1421 1416 1411 1406 1398 1392 1384 1376 1374 1373 1376 1382 1386 1389 1396 1398 1402 1403 1407 1407 1410 1412 1411 1415 1414 1414 1415 1415 1415 1414 1416 1418 1418 1410 1407 1396 1395 1396 1394 1395 1397 1399 1399 1395
1437 1431 1424 1420 1414 1409 1405 1401 1393 1384 1382 1380 1377 1376 1381 1386 1388 1395 1397 1399 1401 1402 1407 1406 1407 1410 1411 1409 1411 1410 1410 1408 1410 1410 1413 1414 1411 1404 1388 1383 1379 1388 1379 1381 1386 1388 1388
1435 1430 1423 1418 1413 1408 1404 1401 1397 1391 1388 1385 1382 1381 1380 1384 1386 1390 1392 1397 1399 1401 1404 1405 1406 1408 1407 1406 1406 1404 1405 1403 1404 1401 1401 1406 1409 1404 1391 1385 1366 1362 1363 1364 1369 1373 1377
1433 1429 1424 1417 1411 1407 1402 1399 1397 1393 1389 1386 1382 1381 1379 1382 1385 1390 1393 1396 1399 1401 1404 1405 1403 1403 1404 1406 1402 1400 1401 1398 1393 1391 1392 1396 1404 1397 1387 1376 1366 1362 1360 1364 1370 1366 1367
1431 1427 1423 1418 1413 1407 1402 1398 1393 1389 1386 1383 1380 1381 1380 1379 1382 1384 1391 1395 1397 1399 1402 1400 1401 1401 1402 1401 1399 1394 1405 1394 1398 1390 1392 1397 1398 1401 1388 1382 1375 1367 1361 1362 1365 1366 1352
1429 1424 1420 1416 1410 1407 1402 1399 1394 1389 1385 1383 1381 1381 1378 1377 1379 1384 1388 1392 1395 1397 1399 1400 1399 1400 1401 1398 1394 1394 1396 1394 1398 1390 1389 1393 1397 1394 1388 1381 1376 1367 1365 1366 1367 1361 1350
1428 1422 1417 1413 1409 1406 1400 1396 1393 1390 1389 1386 1382 1381 1380 1379 1381 1383 1386 1389 1392 1394 1396 1398 1399 1396 1396 1393 1393 1391 1393 1395 1394 1388 1387 1389 1390 1388 1392 1386 1381 1368 1371 1370 1362 1355 1354
1426 1421 1416 1412 1407 1404 1401 1398 1394 1392 1389 1385 1381 1379 1379 1382 1383 1383 1384 1387 1389 1390 1392 1393 1394 1394 1392 1389 1391 1388 1389 1395 1391 1390 1383 1387 1381 1381 1383 1378 1368 1367 1366 1362 1359 1356 1354